Wind_Speed
6 6 6 6 7 7 7 7 7 8 8 9 10 11 11 12 11 12 13 13 14 14 15 15 15 15 16 16 16 16 16 15 14 13 12 11 10 9 8 7 6 5 6
7 7 7 7 8 9 9 9 10 10 10 11 12 12 13 13 13 13 13 13 14 15 15 15 16 16 16 16 17 17 16 16 15 14 13 12 11 10 9 7 5 4 4
7 8 8 9 10 11 12 12 12 13 14 14 14 14 14 15 15 15 15 14 14 15 15 15 15 16 16 16 16 17 16 16 16 16 15 14 13 11 9 8 6 4 3
10 10 11 12 12 13 14 14 15 17 17 17 18 17 17 17 18 17 16 16 15 15 15 15 16 15 16 16 16 16 16 16 16 17 16 15 13 12 10 8 6 4 3
13 13 14 15 15 16 17 17 18 19 20 21 21 21 21 20 20 19 18 18 17 16 15 15 15 15 15 15 15 15 15 15 15 16 15 15 13 12 10 8 7 6 4
17 17 18 18 19 19 20 20 21 21 22 23 23 23 23 23 23 22 20 19 19 18 17 16 15 15 15 15 15 15 14 14 14 14 14 14 13 11 10 9 8 6 5
21 21 21 22 22 23 23 23 24 24 24 25 26 25 25 25 26 25 23 22 22 21 19 17 16 16 15 15 15 14 14 14 14 14 14 13 12 11 10 9 8 7 7
24 24 24 25 26 26 26 26 27 27 27 27 28 28 28 27 27 28 26 25 24 23 22 20 18 17 16 15 15 14 14 13 13 13 13 12 12 11 11 10 9 9 8
25 26 27 27 27 27 28 28 29 29 30 29 29 30 30 29 28 28 27 26 26 25 23 22 20 18 17 16 15 14 14 14 14 14 13 13 12 12 11 10 10 10 10
26 27 27 28 28 28 28 29 29 30 31 32 32 32 33 32 30 29 28 28 28 26 25 24 22 20 19 17 16 15 14 14 14 14 14 13 12 12 11 11 11 11 11
25 26 26 26 26 27 27 28 29 30 31 32 33 33 34 34 33 31 30 30 29 28 26 24 24 22 20 19 17 16 15 15 14 14 14 13 13 12 12 12 12 12 11
23 24 24 24 24 25 26 27 28 29 30 31 32 32 33 34 34 34 32 31 30 29 27 25 24 23 22 20 18 17 17 16 16 15 14 14 13 13 13 12 12 12 12
22 23 23 23 23 24 24 25 26 28 29 30 31 32 33 33 34 34 34 32 31 31 29 27 25 24 23 22 21 19 18 18 17 16 15 15 14 14 14 13 13 13 13
21 22 22 22 22 23 23 23 24 25 26 28 29 31 31 32 33 34 34 33 32 32 31 29 27 27 25 24 23 22 20 19 19 18 17 16 15 15 15 14 14 14 14
19 20 20 20 21 21 21 20 21 22 24 25 27 28 30 32 33 33 34 33 33 32 32 31 29 28 27 26 25 25 23 21 21 20 19 18 16 16 16 16 15 15 15
19 19 19 19 19 19 19 19 19 20 21 23 25 27 28 29 31 32 34 34 33 33 33 33 31 29 29 28 28 27 26 25 23 23 21 19 18 17 17 17 17 16 16
19 19 19 19 19 18 18 18 18 18 19 20 22 23 25 27 28 30 31 32 33 32 33 33 33 31 31 30 30 29 28 27 26 25 24 22 20 19 18 18 18 18 17
19 19 19 19 18 18 17 16 16 16 16 17 18 20 22 24 26 27 29 30 30 31 31 33 34 33 32 32 30 30 30 29 28 27 24 23 22 21 20 19 19 19 18
18 19 19 19 19 19 18 17 16 16 15 15 15 16 17 20 22 25 26 27 28 29 29 31 32 33 32 32 31 31 30 30 30 29 26 24 23 23 22 21 20 21 20
18 19 20 20 20 19 18 18 17 16 15 15 14 13 14 15 18 21 23 25 26 27 28 29 30 31 32 33 33 31 31 30 31 30 29 27 25 25 24 23 22 22 22
18 19 20 20 20 20 20 19 18 17 16 15 14 12 11 11 13 15 18 21 23 25 26 28 28 30 31 32 33 32 32 31 31 31 32 31 29 27 26 25 25 24 24
18 18 20 20 20 20 20 20 20 19 17 16 15 13 11 9 9 11 14 16 19 22 24 26 27 28 29 31 32 33 33 32 32 33 33 33 32 31 29 28 28 27 26
17 18 19 20 20 21 21 21 20 19 19 17 16 14 12 10 9 8 10 13 15 18 20 23 25 26 28 30 31 32 33 33 33 33 34 34 34 33 32 31 30 30 28
17 18 19 20 21 21 21 21 21 20 20 19 18 17 14 11 9 8 9 10 12 14 17 20 23 25 27 29 30 31 32 33 32 33 35 35 35 35 35 34 32 32 31
16 17 19 20 21 21 22 22 22 21 21 20 19 18 16 14 11 9 8 9 11 12 15 18 20 23 26 28 30 30 32 33 33 33 34 35 36 36 36 36 35 34 34
15 17 18 19 20 21 21 22 22 22 22 21 21 20 18 16 14 12 10 9 9 10 12 15 18 20 23 27 29 31 32 33 34 35 36 36 36 37 37 37 38 37 37
Wind_Direction
321 315 305 302 301 302 297 293 292 290 289 287 283 282 282 280 277 275 272 270 267 264 262 261 261 259 257 255 253 253 250 250 250 252 257 266 273 279 288 301 316 337 359
313 309 298 291 290 289 285 279 276 277 278 279 278 276 277 277 277 277 275 273 272 269 265 264 262 261 258 256 253 253 252 250 249 253 257 263 268 272 276 285 297 314 342
307 303 295 289 283 282 281 279 274 270 269 270 271 271 269 270 272 273 273 270 270 269 266 265 263 261 258 257 254 253 252 250 251 253 258 262 264 266 267 270 273 285 311
305 302 294 289 284 280 277 277 274 269 266 266 266 267 265 264 265 268 269 268 268 267 265 264 263 260 259 257 255 253 251 251 252 253 256 258 260 258 260 260 256 259 261
299 296 291 286 282 277 275 274 272 269 266 264 264 264 263 262 264 266 266 266 265 264 262 262 261 259 259 258 256 252 252 251 251 252 253 253 254 253 253 248 246 243 237
293 291 287 284 280 277 274 271 270 268 265 263 262 263 263 260 260 262 263 263 263 262 260 260 260 258 258 257 255 251 250 249 247 248 248 249 248 247 245 238 238 232 218
292 288 285 282 279 276 273 271 269 267 266 265 261 262 262 259 258 258 259 258 259 258 258 258 257 255 255 255 253 250 247 246 245 244 245 245 242 238 237 235 230 220 208
291 289 286 282 279 276 273 270 267 265 265 264 262 262 262 260 258 257 258 257 256 256 255 256 254 253 252 252 250 247 244 243 242 239 239 237 234 232 232 229 223 213 204
291 290 288 284 281 277 274 271 267 264 263 262 260 260 260 259 259 257 258 258 257 256 254 254 252 250 249 248 247 245 242 240 239 236 236 233 231 228 227 226 218 209 203
294 291 288 285 282 280 276 272 268 264 261 260 258 258 258 256 257 256 257 257 255 254 254 252 249 247 245 244 243 241 238 236 236 235 234 232 228 224 223 221 213 207 202
297 295 293 291 287 282 277 273 269 266 263 261 258 257 257 255 254 254 256 255 254 252 252 251 247 246 242 241 239 237 234 233 233 233 232 229 226 222 220 217 212 206 202
304 301 298 296 293 288 283 277 272 269 266 263 260 258 256 254 253 252 253 253 253 251 249 249 247 246 241 238 237 235 232 230 231 231 231 228 225 221 219 215 212 208 203
309 306 302 300 297 294 290 284 278 273 269 265 261 258 256 254 251 251 250 250 251 249 248 249 248 244 240 238 235 233 231 229 228 228 229 228 225 221 218 214 211 208 204
316 312 308 305 302 298 294 289 283 278 273 269 264 260 256 253 251 250 250 249 250 248 248 249 248 244 241 240 236 233 232 229 227 225 225 223 223 221 218 214 212 210 206
326 323 320 315 311 307 302 296 290 284 277 272 268 263 257 254 252 250 249 249 249 248 246 245 245 242 241 242 239 234 231 229 227 225 224 223 221 220 218 215 214 212 207
338 335 332 327 322 318 311 304 298 292 285 277 271 266 261 256 253 250 248 247 247 246 244 243 243 241 239 239 239 236 233 229 228 226 224 223 221 219 218 217 215 213 210
348 345 341 337 333 328 323 316 310 302 294 284 276 269 263 258 254 251 249 247 245 244 243 241 241 241 240 239 238 236 233 229 228 225 224 223 220 219 218 218 216 215 212
357 355 352 348 344 340 335 330 324 317 308 298 287 276 267 259 254 250 248 247 244 242 242 241 240 241 240 238 236 234 231 228 226 224 222 221 219 219 218 217 217 216 212
4 2 360 357 354 352 349 343 337 330 324 315 303 289 275 264 256 251 247 246 245 243 242 241 239 239 238 237 236 234 231 228 225 225 223 223 220 218 218 217 217 216 213
8 6 4 3 2 1 -0 357 352 347 341 335 324 308 289 274 261 254 249 246 245 244 242 240 238 238 237 236 236 235 230 227 225 224 222 223 221 219 218 218 218 217 215
11 9 9 8 6 6 5 3 2 358 353 348 342 332 311 287 269 258 251 248 246 244 243 240 238 237 236 235 234 232 230 230 228 227 224 222 222 221 219 220 220 219 218
13 12 13 12 12 11 10 9 7 6 4 1 358 350 337 315 287 267 256 251 248 246 243 241 239 237 236 235 234 233 230 230 230 230 225 222 222 222 222 222 222 221 220
16 16 16 16 16 15 14 13 12 11 10 8 6 2 354 340 318 292 269 258 253 249 246 242 240 238 237 236 236 235 233 230 230 230 226 223 222 222 222 221 222 222 221
21 20 20 19 19 18 17 16 16 14 13 11 9 7 3 354 338 316 290 270 261 254 248 244 240 239 238 236 234 234 233 233 232 231 230 227 223 222 222 222 223 222 222
23 22 21 21 20 20 19 18 17 17 16 14 12 9 7 2 354 339 317 290 273 264 256 248 244 240 238 237 235 233 232 232 233 233 231 229 226 224 223 224 223 223 223
21 20 20 19 19 19 19 19 18 18 17 15 14 12 9 6 0 351 337 319 296 277 265 254 248 245 242 239 237 236 234 233 232 233 232 229 228 226 225 225 226 225 225
Height
5896 5895 5895 5894 5894 5894 5894 5893 5893 5893 5892 5892 5892 5892 5892 5892 5892 5892 5892 5892 5892 5892 5892 5892 5892 5892 5892 5892 5892 5893 5893 5893 5894 5894 5894 5894 5894 5893 5893 5892 5892 5891 5891
5895 5894 5894 5893 5893 5893 5892 5892 5892 5891 5891 5891 5891 5891 5890 5890 5890 5890 5890 5890 5890 5890 5890 5890 5890 5890 5890 5890 5890 5891 5891 5892 5892 5892 5892 5892 5892 5892 5892 5892 5892 5891 5891
5893 5892 5892 5891 5891 5891 5890 5890 5889 5889 5889 5888 5888 5888 5888 5888 5888 5888 5888 5888 5888 5888 5888 5888 5888 5888 5888 5888 5888 5888 5889 5889 5890 5890 5890 5891 5891 5891 5891 5891 5891 5891 5891
5891 5890 5890 5889 5889 5888 5888 5887 5887 5886 5886 5885 5885 5885 5885 5885 5885 5885 5886 5886 5886 5885 5885 5886 5886 5886 5886 5886 5886 5886 5887 5887 5888 5888 5888 5889 5889 5889 5889 5889 5890 5890 5890
5889 5888 5887 5887 5886 5885 5885 5884 5883 5883 5882 5882 5882 5882 5882 5882 5882 5882 5882 5883 5883 5883 5883 5883 5883 5883 5883 5883 5883 5884 5884 5885 5885 5886 5886 5887 5887 5887 5888 5888 5888 5889 5890
5886 5885 5884 5883 5882 5881 5880 5880 5879 5878 5878 5878 5877 5877 5877 5878 5878 5878 5879 5879 5879 5880 5880 5880 5880 5881 5881 5881 5881 5882 5882 5883 5883 5884 5884 5885 5885 5886 5886 5887 5887 5888 5889
5883 5881 5880 5878 5877 5876 5875 5875 5874 5874 5873 5873 5873 5872 5873 5873 5874 5874 5875 5875 5876 5876 5877 5877 5877 5878 5878 5879 5879 5880 5880 5881 5881 5882 5882 5883 5883 5884 5884 5885 5886 5887 5888
5878 5876 5874 5873 5871 5870 5869 5869 5868 5868 5867 5867 5867 5867 5867 5868 5868 5869 5870 5871 5871 5872 5873 5874 5874 5875 5875 5876 5877 5877 5878 5879 5879 5880 5880 5881 5882 5882 5883 5884 5885 5886 5887
5872 5870 5868 5867 5865 5864 5863 5862 5861 5861 5861 5861 5861 5861 5861 5862 5863 5864 5864 5865 5867 5868 5869 5870 5870 5872 5872 5873 5874 5875 5875 5876 5877 5878 5878 5879 5880 5881 5881 5882 5884 5885 5886
5867 5864 5862 5860 5859 5857 5856 5855 5854 5854 5854 5854 5854 5854 5855 5855 5856 5858 5858 5860 5861 5863 5864 5865 5866 5868 5869 5870 5871 5872 5873 5874 5875 5876 5876 5877 5878 5879 5880 5881 5882 5883 5885
5861 5859 5856 5854 5852 5850 5849 5847 5846 5846 5846 5846 5846 5847 5848 5848 5850 5851 5852 5854 5855 5857 5859 5860 5862 5863 5865 5866 5868 5869 5870 5872 5873 5873 5874 5875 5876 5877 5878 5880 5881 5882 5884
5856 5853 5851 5848 5846 5844 5842 5841 5839 5839 5838 5838 5839 5839 5840 5841 5842 5844 5846 5847 5849 5851 5853 5855 5857 5859 5861 5863 5865 5866 5868 5869 5870 5871 5872 5873 5874 5875 5877 5878 5880 5881 5883
5852 5848 5845 5843 5840 5838 5836 5834 5832 5831 5831 5831 5831 5831 5832 5833 5834 5836 5838 5841 5842 5845 5847 5850 5852 5854 5856 5858 5861 5862 5864 5866 5867 5869 5870 5871 5872 5874 5875 5877 5878 5880 5882
5847 5844 5841 5838 5835 5832 5830 5828 5826 5824 5824 5823 5823 5823 5824 5825 5827 5829 5831 5833 5835 5838 5841 5844 5846 5849 5851 5854 5856 5858 5861 5863 5864 5866 5867 5869 5870 5872 5873 5875 5877 5879 5881
5844 5840 5836 5833 5830 5827 5824 5822 5820 5818 5817 5816 5815 5815 5816 5817 5819 5821 5823 5826 5828 5831 5834 5837 5840 5843 5846 5848 5851 5854 5856 5859 5861 5862 5864 5866 5868 5870 5871 5873 5875 5877 5879
5841 5837 5833 5830 5826 5823 5820 5817 5815 5812 5811 5809 5808 5808 5808 5809 5811 5813 5815 5818 5821 5824 5827 5830 5833 5836 5839 5842 5846 5849 5852 5854 5857 5859 5861 5863 5865 5867 5869 5871 5873 5875 5877
5838 5835 5831 5827 5823 5819 5816 5813 5810 5807 5805 5803 5802 5801 5801 5802 5803 5805 5808 5810 5813 5816 5819 5823 5826 5830 5833 5836 5840 5843 5846 5849 5852 5854 5857 5859 5862 5864 5866 5868 5871 5873 5875
5837 5833 5829 5825 5821 5817 5813 5810 5806 5803 5801 5798 5796 5795 5795 5795 5796 5798 5801 5803 5806 5809 5812 5816 5819 5823 5826 5830 5833 5837 5840 5844 5847 5849 5852 5855 5858 5860 5863 5865 5868 5870 5873
5836 5832 5828 5824 5819 5815 5811 5807 5804 5800 5797 5794 5792 5790 5789 5789 5790 5792 5794 5796 5799 5802 5805 5809 5812 5816 5819 5823 5826 5830 5834 5838 5841 5844 5847 5851 5853 5856 5859 5862 5865 5867 5870
5836 5832 5827 5823 5819 5814 5810 5806 5802 5798 5795 5792 5789 5786 5785 5784 5785 5786 5788 5790 5793 5796 5799 5802 5805 5809 5812 5816 5820 5824 5828 5831 5835 5839 5843 5846 5849 5852 5855 5858 5861 5864 5867
5835 5832 5827 5823 5818 5814 5809 5805 5801 5797 5794 5790 5787 5784 5782 5781 5781 5782 5783 5785 5787 5790 5793 5796 5799 5802 5805 5809 5813 5817 5821 5825 5829 5833 5837 5840 5844 5847 5851 5854 5857 5860 5863
5836 5832 5828 5823 5819 5814 5810 5805 5801 5797 5793 5790 5786 5783 5781 5779 5778 5779 5780 5781 5783 5785 5787 5790 5792 5795 5798 5802 5806 5810 5814 5819 5822 5826 5830 5834 5838 5842 5846 5849 5853 5856 5859
5836 5832 5828 5824 5819 5815 5810 5806 5802 5797 5794 5790 5786 5783 5780 5778 5777 5776 5777 5777 5779 5780 5781 5784 5786 5789 5792 5795 5799 5803 5807 5811 5815 5819 5823 5828 5831 5835 5839 5843 5847 5851 5854
5837 5833 5829 5824 5820 5815 5811 5807 5802 5798 5794 5790 5786 5783 5780 5778 5776 5774 5774 5774 5775 5775 5777 5778 5781 5783 5786 5789 5792 5796 5800 5804 5808 5812 5817 5821 5825 5829 5833 5837 5841 5845 5848
5838 5834 5830 5825 5821 5817 5812 5808 5803 5799 5795 5791 5787 5783 5780 5777 5775 5773 5772 5771 5771 5771 5772 5773 5775 5777 5779 5782 5785 5788 5792 5796 5800 5804 5809 5813 5818 5822 5826 5830 5834 5838 5842
5838 5835 5831 5827 5822 5818 5814 5809 5805 5801 5796 5792 5788 5784 5780 5777 5774 5772 5770 5769 5768 5767 5768 5768 5770 5771 5773 5775 5778 5781 5785 5789 5793 5797 5801 5805 5809 5814 5818 5822 5827 5831 5834